Wake Island, Wake Island Army, WQ

11:03 AM +12 on May 24, 2017 (GMT +1200)
Wake Island Army Air Field

Weather History for PWAK - November, 2012

Change the Weather History Date:

Tuesday, November 6, 2012

  Actual Average Record
Temperature  
Mean Temperature 83 °F -  
Max Temperature 86 °F 83 °F 87 °F (2001)
Min Temperature 80 °F 77 °F 75 °F (2003)
Cooling Degree Days 18    
Growing Degree Days 33 (Base 50)    
Moisture  
Dew Point 75 °F    
Average Humidity 78    
Maximum Humidity 89    
Minimum Humidity 63    
Precipitation  
Precipitation 0.00 in - - ()
Sea Level Pressure  
Sea Level Pressure 29.88 in    
Wind  
Wind Speed 14 mph (NE)    
Max Wind Speed 17 mph    
Max Gust Speed -    
Visibility 10 miles    
Events      
Averages and records for this station are not official NWS values.
T = Trace of Precipitation, MM = Missing Value Source: NWS Daily Summary

Daily Weather History Graph

Daily Weather History Graph

Search for Another Location

Airport or City:

Trip Planner

Search our weather history database for the weather conditions in past years. The results will help you decide how hot, cold, wet, or windy it might be!

Date:

Astronomy

Nov. 06, 2012 Rise Set
Actual Time 6:56 AM +12 6:17 PM +12
Civil Twilight 6:33 AM +12 6:40 PM +12
Nautical Twilight 6:07 AM +12 7:06 PM +12
Astronomical Twilight 5:41 AM +12 7:32 PM +12
Moon No Moon Rise 12:26 PM +12 (11/6)
Length of Visible Light 12h 06m
Length of Day
11h 21m
Waning Gibbous, 60% of the Moon is Illuminated
Nov 6
Waning Gibbous
Nov 7
Last Quarter
Nov 14
New
Nov 21
First Quarter
Nov 29
Full

Hourly Weather History & Observations

Time (+12) Temp. Heat Index Dew Point Humidity Pressure Visibility Wind Dir Wind Speed Gust Speed Precip Events Conditions
12:55 AM 80.6 °F 86.2 °F 75.2 °F 84% 29.88 in 10.0 mi ENE 16.1 mph - N/A   Scattered Clouds
1:55 AM 80.6 °F 86.2 °F 75.2 °F 84% 29.87 in 10.0 mi ENE 15.0 mph - N/A   Scattered Clouds
3:55 AM 80.6 °F 87.1 °F 77.0 °F 89% 29.85 in 10.0 mi ENE 13.8 mph - N/A   Scattered Clouds
4:55 AM 80.6 °F 87.1 °F 77.0 °F 89% 29.85 in 10.0 mi ENE 11.5 mph - N/A   Mostly Cloudy
5:55 AM 80.6 °F 87.1 °F 77.0 °F 89% 29.85 in 10.0 mi ENE 10.4 mph - N/A   Mostly Cloudy
6:55 AM 80.6 °F 87.1 °F 77.0 °F 89% 29.87 in 10.0 mi ENE 12.7 mph - N/A   Clear
8:55 AM 82.4 °F 89.5 °F 75.2 °F 79% 29.90 in 10.0 mi ENE 11.5 mph - N/A   Clear
9:55 AM 84.2 °F 92.3 °F 75.2 °F 74% 29.91 in 10.0 mi ENE 12.7 mph - N/A   Partly Cloudy
10:55 AM 84.2 °F 92.3 °F 75.2 °F 74% 29.90 in 10.0 mi NE 15.0 mph - N/A   Clear
11:55 AM 86.0 °F 95.1 °F 75.2 °F 70% 29.88 in 10.0 mi NE 13.8 mph - N/A   Clear
12:55 PM 84.2 °F 90.9 °F 73.4 °F 70% 29.86 in 10.0 mi NE 13.8 mph - N/A   Clear
1:55 PM 84.2 °F 90.9 °F 73.4 °F 70% 29.84 in 10.0 mi ENE 12.7 mph - N/A   Clear
2:55 PM 84.2 °F 90.9 °F 73.4 °F 70% 29.83 in 10.0 mi NE 12.7 mph - N/A   Clear
3:59 PM 84.2 °F 90.9 °F 73.4 °F 70% 29.83 in 10.0 mi NE 11.5 mph - N/A   Clear
4:57 PM 84.2 °F 90.9 °F 73.4 °F 70% 29.84 in 10.0 mi NNE 12.7 mph - N/A   Clear
5:55 PM 82.4 °F 89.5 °F 75.2 °F 79% 29.86 in 10.0 mi NNE 13.8 mph - N/A   Clear
6:59 PM 82.4 °F 89.5 °F 75.2 °F 79% 29.88 in 10.0 mi NE 11.5 mph - N/A   Clear
8:56 PM 80.6 °F 87.1 °F 77.0 °F 89% 29.92 in 10.0 mi NE 9.2 mph - N/A   Partly Cloudy
9:59 PM 80.6 °F 86.2 °F 75.2 °F 84% 29.93 in 10.0 mi NNE 13.8 mph - N/A   Clear
10:55 PM 80.6 °F 86.2 °F 75.2 °F 84% 29.93 in 10.0 mi NE 12.7 mph - N/A   Partly Cloudy
11:55 PM 80.6 °F 85.4 °F 73.4 °F 79% 29.91 in 10.0 mi NE 17.3 mph - N/A   Partly Cloudy